Wind_Speed
29 28 27 24 22 23 18 13 12 11 12 10 8 6 5 3 5 5 5 5 4 3 4 6 8 11 13 15 17 20 21 20 24 23 23 20 22 23 20 16 17 16 18
24 25 26 25 24 25 19 15 14 11 11 10 9 8 6 5 1 2 7 8 7 7 7 9 12 13 17 20 22 23 23 20 21 24 23 22 24 26 22 20 18 18 19
24 27 29 28 25 25 19 17 14 11 10 10 10 10 9 7 5 2 5 8 9 9 9 10 13 17 21 23 22 20 20 17 19 24 23 26 27 28 20 17 17 19 19
23 27 29 28 28 25 20 18 16 12 12 10 12 11 10 10 8 4 2 6 7 7 10 14 17 19 21 21 21 22 18 18 18 21 25 29 28 23 15 15 19 20 16
24 23 24 25 26 25 23 19 15 14 12 11 10 9 9 8 6 5 4 5 8 13 14 16 17 20 23 24 23 20 19 19 24 28 27 27 18 12 16 18 21 17 15
23 22 23 22 24 26 24 22 17 16 15 14 11 10 10 6 6 5 4 6 8 11 13 14 18 21 21 22 16 17 18 20 23 22 20 14 12 16 17 20 16 17 19
21 22 23 22 24 24 24 22 18 18 17 15 11 13 16 12 11 10 10 12 11 13 15 18 18 18 21 13 11 13 15 17 17 15 16 16 17 16 16 15 14 16 15
25 24 25 25 24 25 25 23 20 19 18 12 11 13 12 11 11 11 12 14 14 16 19 17 17 19 12 8 12 13 15 15 15 15 14 13 13 13 13 14 12 15 16
25 25 25 25 26 26 27 26 22 22 18 11 12 14 15 13 16 16 15 14 15 18 18 14 16 14 7 10 12 12 15 19 14 9 12 14 13 14 17 11 11 14 19
22 24 27 30 29 29 29 28 24 24 16 11 12 13 12 14 15 14 14 14 16 17 14 15 16 11 11 13 13 14 15 21 20 18 13 10 9 11 13 13 12 13 15
20 22 24 29 33 32 29 28 26 24 14 13 14 13 13 11 11 12 13 15 19 15 14 15 15 13 13 15 13 13 16 23 22 19 18 16 13 14 8 10 13 14 14
21 23 24 26 31 36 37 25 28 21 17 14 14 14 13 14 14 13 14 17 16 13 15 17 17 13 14 13 11 12 16 22 19 17 15 15 10 8 8 9 9 10 13
18 22 23 27 28 35 34 28 26 19 17 15 17 15 17 17 15 15 15 15 12 14 17 15 5 6 9 8 10 12 17 18 16 14 14 12 13 13 13 14 14 14 13
17 19 21 27 28 28 29 19 22 19 18 18 17 18 18 17 15 12 12 12 13 14 6 4 7 7 5 7 10 12 15 15 16 13 12 12 14 15 15 17 18 19 18
19 17 21 22 26 23 19 20 22 20 20 17 15 17 15 13 9 10 10 12 7 4 5 7 7 7 8 10 13 11 12 12 13 11 12 15 15 15 16 18 22 21 18
20 17 17 22 25 26 26 21 21 19 17 15 14 15 15 11 8 7 8 5 4 7 10 12 12 11 10 10 13 12 11 11 12 13 14 15 15 18 23 25 24 21 18
20 17 15 24 23 23 23 18 22 19 15 13 13 13 8 8 6 4 5 6 7 9 8 8 9 11 11 12 13 12 13 13 16 18 19 18 20 26 29 27 23 21 20
18 17 16 25 18 24 26 23 23 20 21 18 15 12 9 8 6 6 6 7 9 8 8 8 10 10 13 11 10 11 14 17 16 15 17 23 27 29 28 25 23 21 20
19 21 15 22 28 27 25 23 18 21 17 15 16 14 11 8 7 6 10 11 12 10 10 9 9 11 11 8 11 16 17 15 16 21 24 25 25 28 27 24 22 20 19
22 24 18 20 28 27 24 21 24 18 16 18 16 14 11 7 7 5 5 8 8 8 8 8 8 10 12 15 16 17 16 18 22 24 23 26 26 27 25 22 19 17 12
21 22 15 24 24 20 27 24 21 18 17 17 16 13 9 7 6 9 8 5 7 8 6 6 9 12 14 15 16 18 21 23 23 25 27 27 25 25 19 15 11 8 9
22 19 19 32 29 35 30 24 21 19 19 20 17 12 9 7 10 7 4 7 8 5 5 8 11 13 14 16 19 22 24 25 27 28 27 25 23 20 14 12 12 12 11
23 21 23 35 40 36 33 26 23 21 21 18 14 11 9 10 8 5 6 8 7 7 10 11 12 14 16 18 22 25 27 28 29 29 29 26 23 18 14 13 12 11 9
27 24 35 39 38 34 29 26 22 21 21 18 15 11 10 9 5 5 6 7 7 9 10 12 13 15 17 20 22 24 26 28 29 28 26 24 19 14 11 9 10 7 10
22 38 43 40 35 30 24 22 24 23 23 19 15 11 9 5 4 5 6 6 8 9 9 11 13 16 18 21 22 24 27 27 25 23 21 17 12 9 8 9 8 10 10
42 41 36 29 26 25 25 26 25 25 22 16 12 8 5 3 3 4 4 5 7 8 10 12 14 17 19 20 22 25 27 25 23 23 21 11 7 7 9 9 6 6 8
Wind_Direction
219 220 223 223 224 219 215 222 225 225 226 224 236 233 261 233 216 215 189 207 211 273 285 303 318 316 316 314 314 307 309 302 309 305 309 313 317 327 316 307 308 307 299
231 227 228 226 223 218 219 225 226 228 225 233 241 247 247 225 250 238 223 211 253 264 279 300 308 309 313 314 310 303 301 294 298 301 306 310 310 321 312 307 307 308 304
236 228 224 224 222 221 224 224 225 233 233 238 244 250 235 241 235 298 240 220 244 273 290 300 314 314 313 310 308 303 317 289 289 299 307 306 308 315 310 301 309 314 311
234 230 226 227 225 225 221 223 228 238 233 246 248 240 238 248 236 242 252 231 253 268 289 302 311 311 308 305 304 307 303 293 298 301 300 304 304 314 306 310 314 318 316
231 232 234 234 226 223 218 217 224 227 234 234 221 221 233 238 243 251 255 243 271 287 292 305 307 309 308 309 303 301 301 298 305 307 297 308 314 313 312 316 318 321 332
241 242 237 234 230 228 223 214 214 216 216 209 210 212 224 254 263 269 273 290 292 290 294 303 308 314 317 317 316 316 323 307 311 314 315 315 308 310 310 310 316 323 330
250 243 240 238 232 231 228 227 217 215 213 220 213 231 246 258 268 267 270 274 283 292 297 303 315 321 331 314 325 325 323 322 323 324 322 311 306 312 304 309 319 322 319
250 240 237 234 235 231 228 228 227 217 217 224 214 237 248 254 261 256 263 265 278 283 293 306 310 325 332 325 330 334 334 331 315 309 313 320 312 309 303 306 323 312 313
246 242 247 238 235 235 227 226 227 221 221 232 219 242 250 252 259 262 266 268 269 286 295 296 306 329 314 322 324 324 338 343 334 324 324 319 303 300 313 307 316 307 311
254 252 251 246 239 243 228 224 225 221 230 208 226 242 246 257 267 258 271 263 277 288 286 293 305 310 285 308 318 323 326 332 329 327 325 318 307 303 302 304 308 314 317
272 264 262 261 250 254 240 227 221 221 207 206 225 244 249 240 260 262 267 284 293 284 281 294 308 304 276 301 311 314 323 328 324 320 321 318 311 311 294 288 295 305 307
294 274 271 274 271 262 243 234 216 219 199 213 222 237 243 249 260 265 269 282 280 277 290 300 305 295 291 292 296 309 320 327 322 315 324 335 348 334 319 317 309 302 303
299 294 291 293 277 259 243 228 222 200 189 220 215 238 244 249 255 263 275 277 278 289 296 300 302 302 303 288 299 308 318 333 334 326 323 334 333 336 332 319 310 303 290
310 298 297 290 260 248 230 219 215 191 204 209 215 236 242 245 256 268 276 277 283 293 288 295 295 305 299 309 302 307 315 343 351 346 343 331 334 333 334 335 334 327 307
328 312 315 285 253 231 207 206 206 207 208 209 220 231 234 244 251 269 269 279 278 252 279 280 300 305 307 294 288 304 318 340 351 347 346 336 330 329 329 326 325 326 319
318 312 309 286 242 232 221 212 198 209 194 208 226 228 246 240 243 254 266 223 223 269 281 276 275 289 294 289 287 291 311 329 335 323 317 318 320 317 316 320 320 319 316
315 310 293 253 252 226 218 189 199 174 183 203 207 210 209 216 206 196 189 216 254 276 273 293 286 295 310 290 285 284 303 308 305 307 308 313 315 314 315 317 316 313 309
310 305 291 267 264 233 202 190 182 181 181 179 188 196 190 184 180 181 201 245 274 262 266 286 292 308 320 309 281 293 312 316 308 311 312 314 315 315 315 313 311 308 307
294 309 276 257 248 230 193 176 158 187 191 196 194 184 184 190 217 241 258 262 274 272 286 294 310 325 327 326 325 328 331 329 322 319 319 320 321 321 318 312 306 302 304
280 301 285 267 235 197 180 164 177 186 192 195 190 187 188 227 262 270 260 267 269 290 298 305 322 330 327 328 333 335 330 324 322 322 322 324 325 325 322 316 309 304 302
278 288 268 227 190 177 152 174 188 193 199 193 184 189 210 233 261 242 245 262 315 321 312 320 335 330 324 328 331 330 327 325 325 324 324 326 327 330 331 334 336 330 316
268 275 247 226 189 151 158 180 186 193 188 184 190 198 198 214 224 226 266 319 328 316 306 326 330 326 324 326 328 328 327 327 326 324 325 327 328 329 322 324 323 320 318
258 266 236 202 163 154 164 179 188 191 184 190 196 198 194 205 213 243 312 331 321 306 319 325 327 326 327 328 329 330 329 329 328 326 324 324 325 323 312 315 321 325 338
266 246 205 172 157 165 178 184 191 190 190 191 190 187 193 206 230 301 321 321 313 323 328 329 330 331 331 332 333 333 332 330 328 326 325 325 326 322 315 315 328 336 327
204 175 159 150 164 184 182 189 181 186 184 183 183 194 200 224 280 296 314 319 331 338 339 337 338 337 337 337 336 337 337 336 337 339 339 340 345 352 346 336 339 352 343
136 135 145 164 173 181 189 176 182 179 177 180 185 192 216 248 277 310 326 335 342 349 353 353 348 345 342 340 339 341 342 344 346 344 343 347 18 7 354 3 31 30 61
Height
1506 1509 1511 1515 1517 1522 1519 1520 1522 1525 1528 1529 1531 1532 1533 1533 1532 1532 1533 1535 1537 1538 1538 1539 1538 1538 1538 1536 1535 1533 1530 1527 1523 1521 1519 1516 1513 1509 1506 1503 1500 1498 1495
1504 1507 1511 1515 1517 1520 1517 1517 1521 1524 1527 1528 1529 1531 1532 1531 1531 1531 1532 1533 1536 1537 1537 1536 1536 1535 1535 1534 1531 1528 1526 1523 1520 1517 1515 1513 1509 1506 1502 1499 1496 1494 1490
1503 1506 1509 1512 1515 1516 1514 1514 1518 1521 1525 1526 1528 1529 1531 1531 1530 1529 1528 1529 1534 1536 1536 1534 1533 1532 1531 1529 1527 1524 1522 1519 1516 1513 1510 1508 1504 1501 1497 1494 1492 1489 1485
1501 1504 1507 1508 1510 1511 1509 1512 1516 1518 1521 1522 1525 1528 1530 1530 1529 1527 1526 1527 1531 1534 1534 1532 1531 1529 1527 1524 1523 1520 1518 1515 1513 1510 1506 1502 1498 1496 1493 1490 1488 1485 1481
1498 1500 1501 1504 1506 1507 1507 1509 1511 1514 1517 1520 1522 1527 1529 1530 1529 1527 1526 1527 1530 1531 1530 1529 1528 1526 1523 1520 1518 1515 1513 1511 1508 1506 1502 1497 1493 1492 1490 1487 1484 1481 1478
1493 1495 1497 1499 1502 1505 1505 1503 1504 1509 1513 1517 1519 1525 1527 1527 1527 1527 1526 1527 1528 1528 1526 1525 1524 1522 1519 1516 1513 1510 1509 1507 1504 1501 1497 1494 1491 1489 1487 1484 1481 1477 1474
1487 1490 1493 1495 1498 1501 1503 1505 1502 1506 1511 1511 1515 1522 1523 1524 1524 1525 1525 1525 1525 1525 1524 1522 1520 1517 1515 1513 1512 1509 1506 1503 1500 1498 1494 1491 1487 1486 1483 1481 1478 1476 1473
1482 1486 1487 1490 1494 1496 1499 1501 1503 1505 1508 1510 1512 1519 1520 1521 1521 1522 1523 1523 1521 1521 1520 1520 1518 1514 1513 1513 1510 1507 1504 1501 1498 1495 1491 1488 1485 1483 1480 1478 1476 1473 1471
1479 1481 1483 1485 1488 1490 1492 1495 1497 1501 1503 1505 1510 1514 1516 1517 1519 1520 1520 1518 1518 1517 1517 1516 1514 1511 1511 1510 1508 1505 1503 1500 1496 1493 1490 1486 1483 1481 1478 1475 1473 1470 1467
1477 1478 1480 1481 1483 1485 1483 1488 1493 1496 1498 1503 1507 1510 1512 1514 1516 1517 1517 1515 1514 1513 1512 1512 1511 1509 1509 1507 1505 1503 1500 1497 1493 1490 1487 1483 1480 1478 1476 1473 1470 1467 1464
1478 1477 1477 1479 1480 1480 1481 1483 1488 1493 1495 1500 1505 1508 1510 1513 1514 1515 1514 1513 1510 1510 1509 1509 1507 1506 1506 1504 1502 1500 1497 1494 1490 1486 1482 1479 1477 1474 1472 1470 1468 1465 1462
1474 1473 1473 1475 1475 1474 1473 1469 1481 1483 1490 1496 1501 1504 1508 1510 1512 1512 1510 1508 1507 1507 1506 1505 1503 1503 1502 1500 1499 1497 1494 1491 1486 1483 1480 1477 1474 1472 1470 1467 1465 1462 1459
1470 1469 1468 1468 1467 1467 1469 1471 1481 1481 1487 1493 1495 1501 1505 1507 1508 1508 1506 1505 1504 1503 1503 1501 1501 1500 1499 1498 1497 1495 1492 1488 1483 1480 1477 1475 1473 1470 1467 1464 1462 1459 1456
1466 1466 1464 1461 1461 1463 1465 1469 1473 1478 1485 1490 1494 1498 1502 1503 1504 1503 1503 1502 1501 1500 1501 1500 1500 1498 1497 1496 1494 1492 1489 1485 1481 1477 1475 1473 1470 1468 1465 1461 1457 1454 1450
1463 1463 1461 1458 1458 1462 1465 1468 1472 1478 1483 1489 1492 1496 1499 1500 1500 1500 1501 1499 1498 1500 1499 1500 1497 1495 1494 1493 1491 1489 1486 1483 1479 1476 1473 1471 1468 1465 1462 1459 1455 1450 1446
1461 1459 1457 1456 1456 1457 1459 1463 1470 1476 1482 1487 1491 1495 1496 1498 1498 1499 1497 1497 1497 1498 1498 1496 1493 1492 1491 1489 1488 1486 1483 1480 1477 1474 1471 1468 1465 1462 1458 1454 1450 1446 1442
1457 1455 1453 1453 1454 1455 1459 1462 1468 1475 1482 1485 1489 1493 1495 1497 1497 1496 1495 1495 1496 1496 1495 1492 1491 1489 1488 1485 1484 1482 1479 1477 1473 1470 1467 1464 1460 1457 1452 1448 1444 1440 1437
1452 1452 1451 1450 1452 1453 1456 1460 1468 1473 1479 1483 1488 1491 1494 1495 1495 1494 1494 1494 1495 1494 1493 1490 1490 1487 1485 1481 1479 1478 1476 1472 1469 1466 1463 1459 1455 1450 1444 1441 1437 1434 1431
1449 1449 1448 1447 1449 1450 1454 1460 1467 1475 1478 1483 1487 1490 1493 1494 1493 1493 1494 1494 1494 1492 1490 1487 1486 1483 1482 1479 1477 1474 1471 1467 1464 1461 1458 1453 1449 1443 1438 1434 1431 1428 1426
1447 1445 1444 1443 1446 1448 1455 1461 1469 1474 1479 1483 1486 1490 1491 1491 1491 1492 1493 1493 1491 1489 1487 1486 1483 1481 1479 1477 1473 1470 1467 1464 1460 1456 1452 1448 1443 1437 1432 1427 1424 1422 1421
1441 1441 1441 1441 1444 1451 1456 1463 1469 1475 1479 1483 1486 1488 1489 1490 1490 1492 1492 1490 1488 1485 1484 1483 1481 1479 1476 1473 1470 1467 1463 1459 1455 1451 1446 1442 1437 1432 1428 1424 1421 1420 1419
1436 1437 1438 1438 1442 1447 1454 1461 1468 1474 1478 1481 1484 1487 1488 1489 1491 1491 1489 1487 1485 1484 1482 1480 1478 1476 1473 1470 1467 1463 1459 1454 1450 1445 1440 1436 1432 1428 1425 1423 1421 1419 1417
1429 1431 1433 1433 1438 1444 1452 1460 1467 1472 1477 1481 1483 1486 1487 1489 1490 1489 1486 1484 1483 1482 1480 1477 1475 1473 1470 1467 1463 1459 1454 1449 1444 1438 1433 1429 1426 1423 1421 1420 1418 1416 1415
1422 1423 1426 1429 1437 1445 1453 1460 1466 1472 1476 1480 1483 1485 1487 1488 1488 1486 1484 1483 1482 1479 1477 1475 1472 1470 1467 1463 1460 1455 1450 1445 1438 1433 1428 1424 1421 1419 1418 1417 1416 1415 1412
1411 1414 1421 1430 1436 1449 1455 1460 1466 1471 1475 1480 1483 1485 1486 1486 1485 1484 1483 1482 1480 1476 1474 1472 1469 1466 1463 1460 1456 1451 1446 1440 1434 1428 1424 1420 1418 1417 1416 1415 1414 1413 1411
1413 1420 1428 1435 1443 1449 1455 1461 1467 1471 1476 1480 1483 1484 1485 1484 1484 1484 1482 1479 1477 1475 1472 1469 1467 1464 1461 1457 1453 1448 1442 1436 1431 1426 1421 1418 1417 1417 1416 1414 1413 1412 1411